TIANZHI 1

导读

天智一号(TIANZHI 1)是中国自主研发的天智系列智能卫星的首颗技术验证星,于2018年11月19日发射,运行于近地太阳同步轨道。该卫星验证了人工智能、在轨处理、软件定义卫星等航天前沿技术,具备在轨自主数据处理能力,标志着中国航天向智能化探索迈出关键一步,现已完成任务并陨落。

基本信息
目录编号:
43710
目录名称:
TIANZHI 1
国际标识:
2018-094A
轨道中心:
EARTH
卫星名称:
TIANZHI 1
卫星全名:
--
卫星状态:
已陨落 最后检测时间 2025-10-05
发射日期:
2018-11-19 UTC
国别 :
中国 (CN)
星等 :
--
该卫星已列入 空间交会检测服务 Space Conjunction Data Service (SCDS) ,当前飞行风险评估等级: 无高风险
轨道信息
数据来源 国际轨道数据
星历时间: 2025-10-05T12:00:17+0800
轨道信息已过期343天
半长轴: 6523.081km
偏心率: 0.0011303
轨道倾角: 97.307°
近地点辐角 257.630°
升交点赤经 321.156°
平近点角 102.374°
近地点: 137.572km
远地点: 152.32km
周期: 87.385分钟
每日圈数: 16.478725
详细信息
使用方式:
暂无
与全量物体交会距离演化趋势
与全量物体交会风险概率演化趋势